Time,TemperatureF,DewpointF,PressureIn,WindDirection,WindDirectionDegrees,WindSpeedMPH,WindSpeedGustMPH,Humidity,HourlyPrecipIn,Conditions,Clouds,dailyrainin,SolarRadiationWatts/m^2,SoftwareType,DateUTC
2013-06-27 00:02:00,79.9,77.0,29.94,SSE,167,4.6,4.6,91,0.00,CLR,SKC,0.00,0.0,WeatherDisplay:10.37,2013-06-27 05:02:00,
2013-06-27 00:07:00,79.9,77.0,29.94,SSE,147,4.6,4.6,91,0.00,CLR,SKC,0.00,0.0,WeatherDisplay:10.37,2013-06-27 05:07:00,
2013-06-27 00:12:00,79.8,76.9,29.94,ESE,121,6.9,6.9,91,0.00,CLR,SKC,0.00,0.0,WeatherDisplay:10.37,2013-06-27 05:12:00,
2013-06-27 00:17:00,79.7,76.8,29.94,SSE,165,5.8,5.8,91,0.00,CLR,SKC,0.00,0.0,WeatherDisplay:10.37,2013-06-27 05:17:00,
2013-06-27 00:22:00,79.6,76.7,29.94,South,190,6.9,6.9,91,0.00,CLR,SKC,0.00,0.0,WeatherDisplay:10.37,2013-06-27 05:22:00,
2013-06-27 00:27:00,79.6,76.7,29.94,SE,135,6.9,6.9,91,0.00,CLR,SKC,0.00,0.0,WeatherDisplay:10.37,2013-06-27 05:27:00,
2013-06-27 00:32:00,79.6,76.7,29.94,SE,143,4.6,4.6,91,0.00,CLR,SKC,0.00,0.0,WeatherDisplay:10.37,2013-06-27 05:32:00,
2013-06-27 00:37:00,79.6,76.7,29.94,SE,144,8.1,8.1,91,0.00,CLR,SKC,0.00,0.0,WeatherDisplay:10.37,2013-06-27 05:37:00,
2013-06-27 00:42:00,79.5,76.6,29.94,SSE,159,5.0,5.0,91,0.00,CLR,SKC,0.00,0.0,WeatherDisplay:10.37,2013-06-27 05:42:00,
2013-06-27 00:47:00,79.5,76.6,29.94,SW,214,6.9,6.9,91,0.00,CLR,SKC,0.00,0.0,WeatherDisplay:10.37,2013-06-27 05:47:00,
2013-06-27 00:52:00,79.5,76.6,29.94,SE,136,5.8,5.8,91,0.00,CLR,SKC,0.00,0.0,WeatherDisplay:10.37,2013-06-27 05:52:00,
2013-06-27 00:57:00,79.5,76.6,29.94,SE,142,4.6,4.6,91,0.00,CLR,SKC,0.00,0.0,WeatherDisplay:10.37,2013-06-27 05:57:00,
2013-06-27 01:02:00,79.4,76.5,29.94,SSE,165,4.6,4.6,91,0.00,CLR,SKC,0.00,0.0,WeatherDisplay:10.37,2013-06-27 06:02:00,
2013-06-27 01:07:00,79.5,76.6,29.94,SE,133,5.8,5.8,91,0.00,CLR,SKC,0.00,0.0,WeatherDisplay:10.37,2013-06-27 06:07:00,
2013-06-27 01:12:00,79.5,76.6,29.94,SE,126,3.5,3.5,91,0.00,CLR,SKC,0.00,0.0,WeatherDisplay:10.37,2013-06-27 06:12:00,
2013-06-27 01:17:00,79.5,76.6,29.94,SSE,155,4.6,4.6,91,0.00,CLR,SKC,0.00,0.0,WeatherDisplay:10.37,2013-06-27 06:17:00,
2013-06-27 01:22:00,79.4,76.5,29.94,SSE,158,3.5,3.5,91,0.00,CLR,SKC,0.00,0.0,WeatherDisplay:10.37,2013-06-27 06:22:00,
2013-06-27 01:27:00,79.5,76.6,29.93,South,175,3.5,3.5,91,0.00,CLR,SKC,0.00,0.0,WeatherDisplay:10.37,2013-06-27 06:27:00,
2013-06-27 01:32:00,79.5,76.6,29.93,SSE,153,5.8,5.8,91,0.00,CLR,SKC,0.00,0.0,WeatherDisplay:10.37,2013-06-27 06:32:00,
2013-06-27 01:37:00,79.5,76.6,29.93,South,190,2.3,2.3,91,0.00,CLR,SKC,0.00,0.0,WeatherDisplay:10.37,2013-06-27 06:37:00,
2013-06-27 01:42:00,79.4,76.5,29.94,SSE,153,2.3,2.3,91,0.00,CLR,SKC,0.00,0.0,WeatherDisplay:10.37,2013-06-27 06:42:00,
2013-06-27 01:47:00,79.4,76.5,29.94,SSE,161,3.5,3.5,91,0.00,CLR,SKC,0.00,0.0,WeatherDisplay:10.37,2013-06-27 06:47:00,
2013-06-27 01:52:00,79.3,76.8,29.94,SSE,165,3.5,3.5,92,0.00,CLR,SKC,0.00,0.0,WeatherDisplay:10.37,2013-06-27 06:52:00,
2013-06-27 01:57:00,79.3,76.8,29.94,SE,146,3.5,3.5,92,0.00,CLR,SKC,0.00,0.0,WeatherDisplay:10.37,2013-06-27 06:57:00,
2013-06-27 02:02:00,79.2,76.7,29.94,SSE,154,3.5,3.5,92,0.00,CLR,SKC,0.00,0.0,WeatherDisplay:10.37,2013-06-27 07:02:00,
2013-06-27 02:07:00,79.1,76.6,29.94,SSE,163,3.5,3.5,92,0.00,CLR,SKC,0.00,0.0,WeatherDisplay:10.37,2013-06-27 07:07:00,
2013-06-27 02:12:00,79.1,76.6,29.94,SSE,156,3.5,3.5,92,0.00,CLR,SKC,0.00,0.0,WeatherDisplay:10.37,2013-06-27 07:12:00,
2013-06-27 02:17:00,79.0,76.5,29.94,SSE,159,3.5,3.5,92,0.00,CLR,SKC,0.00,0.0,WeatherDisplay:10.37,2013-06-27 07:17:00,
2013-06-27 02:22:00,79.0,76.5,29.94,South,190,6.9,6.9,92,0.00,CLR,SKC,0.00,0.0,WeatherDisplay:10.37,2013-06-27 07:22:00,
2013-06-27 02:27:00,79.0,76.5,29.94,South,191,2.3,2.3,92,0.00,CLR,SKC,0.00,0.0,WeatherDisplay:10.37,2013-06-27 07:27:00,
2013-06-27 02:32:00,79.0,76.5,29.94,SSW,213,1.1,1.1,92,0.00,CLR,SKC,0.00,0.0,WeatherDisplay:10.37,2013-06-27 07:32:00,
2013-06-27 02:37:00,79.0,76.5,29.94,SSW,194,4.6,4.6,92,0.00,CLR,SKC,0.00,0.0,WeatherDisplay:10.37,2013-06-27 07:37:00,
2013-06-27 02:42:00,79.0,76.5,29.94,SSE,164,3.5,3.5,92,0.00,CLR,SKC,0.00,0.0,WeatherDisplay:10.37,2013-06-27 07:42:00,
2013-06-27 02:47:00,78.9,76.4,29.94,SSE,155,6.9,6.9,92,0.00,CLR,SKC,0.00,0.0,WeatherDisplay:10.37,2013-06-27 07:47:00,
2013-06-27 02:52:00,78.9,76.4,29.94,SSE,168,5.8,5.8,92,0.00,CLR,SKC,0.00,0.0,WeatherDisplay:10.37,2013-06-27 07:52:00,
2013-06-27 02:57:00,78.8,76.3,29.94,SSW,193,3.5,3.5,92,0.00,CLR,SKC,0.00,0.0,WeatherDisplay:10.37,2013-06-27 07:57:00,
2013-06-27 03:02:00,78.7,76.2,29.94,SSE,153,4.6,4.6,92,0.00,CLR,SKC,0.00,0.0,WeatherDisplay:10.37,2013-06-27 08:02:00,
2013-06-27 03:07:00,78.7,76.2,29.94,SSE,151,4.6,4.6,92,0.00,CLR,SKC,0.00,0.0,WeatherDisplay:10.37,2013-06-27 08:07:00,
2013-06-27 03:12:00,78.7,76.2,29.93,SE,146,5.8,5.8,92,0.00,CLR,SKC,0.00,0.0,WeatherDisplay:10.37,2013-06-27 08:12:00,
2013-06-27 03:17:00,78.6,76.1,29.93,SSE,162,3.5,3.5,92,0.00,CLR,SKC,0.00,0.0,WeatherDisplay:10.37,2013-06-27 08:17:00,
2013-06-27 03:22:00,78.7,76.2,29.93,South,169,6.9,6.9,92,0.00,CLR,SKC,0.00,0.0,WeatherDisplay:10.37,2013-06-27 08:22:00,
2013-06-27 03:27:00,78.7,76.2,29.93,SE,140,4.6,4.6,92,0.00,CLR,SKC,0.00,0.0,WeatherDisplay:10.37,2013-06-27 08:27:00,
2013-06-27 03:32:00,78.7,76.2,29.93,South,181,3.5,3.5,92,0.00,CLR,SKC,0.00,0.0,WeatherDisplay:10.37,2013-06-27 08:32:00,
2013-06-27 03:37:00,78.7,76.2,29.93,SSW,202,3.5,3.5,92,0.00,CLR,SKC,0.00,0.0,WeatherDisplay:10.37,2013-06-27 08:37:00,
2013-06-27 03:42:00,78.7,76.2,29.93,SE,135,5.8,5.8,92,0.00,CLR,SKC,0.00,0.0,WeatherDisplay:10.37,2013-06-27 08:42:00,
2013-06-27 03:47:00,78.7,76.2,29.93,South,176,4.6,4.6,92,0.00,CLR,SKC,0.00,0.0,WeatherDisplay:10.37,2013-06-27 08:47:00,
2013-06-27 03:52:00,78.7,76.2,29.93,SSE,155,4.6,4.6,92,0.00,CLR,SKC,0.00,0.0,WeatherDisplay:10.37,2013-06-27 08:52:00,
2013-06-27 03:57:00,78.7,76.2,29.93,SSE,162,9.2,9.2,92,0.00,CLR,SKC,0.00,0.0,WeatherDisplay:10.37,2013-06-27 08:57:00,
2013-06-27 04:02:00,78.6,76.1,29.93,SSE,165,4.0,4.0,92,0.00,CLR,SKC,0.00,0.0,WeatherDisplay:10.37,2013-06-27 09:02:00,
2013-06-27 04:07:00,78.6,76.1,29.93,SE,135,3.5,3.5,92,0.00,CLR,SKC,0.00,0.0,WeatherDisplay:10.37,2013-06-27 09:07:00,
2013-06-27 04:12:00,78.5,76.3,29.93,SSE,164,4.6,4.6,93,0.00,CLR,SKC,0.00,0.0,WeatherDisplay:10.37,2013-06-27 09:12:00,
2013-06-27 04:17:00,78.5,76.3,29.93,South,173,4.6,4.6,93,0.00,CLR,SKC,0.00,0.0,WeatherDisplay:10.37,2013-06-27 09:17:00,
2013-06-27 04:22:00,78.5,76.3,29.93,South,178,3.5,3.5,93,0.00,CLR,SKC,0.00,0.0,WeatherDisplay:10.37,2013-06-27 09:22:00,
2013-06-27 04:27:00,78.4,76.2,29.93,SSE,155,2.3,2.3,93,0.00,CLR,SKC,0.00,0.0,WeatherDisplay:10.37,2013-06-27 09:27:00,
2013-06-27 04:32:00,78.4,76.2,29.93,South,186,4.6,4.6,93,0.00,CLR,SKC,0.00,0.0,WeatherDisplay:10.37,2013-06-27 09:32:00,
2013-06-27 04:37:00,78.3,76.1,29.93,SSE,165,3.5,3.5,93,0.00,CLR,SKC,0.00,0.0,WeatherDisplay:10.37,2013-06-27 09:37:00,
2013-06-27 04:42:00,78.3,76.1,29.94,SE,143,1.1,1.1,93,0.00,CLR,SKC,0.00,0.0,WeatherDisplay:10.37,2013-06-27 09:42:00,
2013-06-27 04:47:00,78.2,76.0,29.94,SSE,148,3.5,3.5,93,0.00,CLR,SKC,0.00,0.0,WeatherDisplay:10.37,2013-06-27 09:47:00,
2013-06-27 04:52:00,78.2,76.0,29.94,ESE,110,3.5,3.5,93,0.00,CLR,SKC,0.00,0.0,WeatherDisplay:10.37,2013-06-27 09:52:00,
2013-06-27 04:57:00,78.2,76.0,29.93,South,176,2.3,2.3,93,0.00,CLR,SKC,0.00,0.0,WeatherDisplay:10.37,2013-06-27 09:57:00,
2013-06-27 05:02:00,78.2,76.0,29.93,SE,136,3.5,3.5,93,0.00,CLR,SKC,0.00,0.0,WeatherDisplay:10.37,2013-06-27 10:02:00,
2013-06-27 05:07:00,78.2,76.0,29.93,SSE,157,3.5,3.5,93,0.00,CLR,SKC,0.00,0.0,WeatherDisplay:10.37,2013-06-27 10:07:00,
2013-06-27 05:12:00,78.2,76.0,29.93,SSE,165,4.6,4.6,93,0.00,CLR,SKC,0.00,0.0,WeatherDisplay:10.37,2013-06-27 10:12:00,
2013-06-27 05:17:00,78.2,76.0,29.93,SE,140,3.5,3.5,93,0.00,CLR,SKC,0.00,0.0,WeatherDisplay:10.37,2013-06-27 10:17:00,
2013-06-27 05:22:00,78.2,76.0,29.93,SSE,165,3.5,3.5,93,0.00,CLR,SKC,0.00,0.0,WeatherDisplay:10.37,2013-06-27 10:22:00,
2013-06-27 05:27:00,78.3,76.1,29.94,SE,135,3.5,3.5,93,0.00,CLR,SKC,0.00,0.0,WeatherDisplay:10.37,2013-06-27 10:27:00,
2013-06-27 05:32:00,78.4,76.2,29.94,SE,126,4.6,4.6,93,0.00,CLR,SKC,0.00,0.0,WeatherDisplay:10.37,2013-06-27 10:32:00,
2013-06-27 05:37:00,78.3,76.1,29.94,SE,131,3.5,3.5,93,0.00,CLR,SKC,0.00,0.0,WeatherDisplay:10.37,2013-06-27 10:37:00,
2013-06-27 05:42:00,78.3,76.1,29.93,SSE,160,3.5,3.5,93,0.00,CLR,SKC,0.00,0.0,WeatherDisplay:10.37,2013-06-27 10:42:00,
2013-06-27 05:47:00,78.3,76.1,29.93,SSE,156,3.5,3.5,93,0.00,CLR,SKC,0.00,0.0,WeatherDisplay:10.37,2013-06-27 10:47:00,
2013-06-27 05:52:00,78.3,76.1,29.93,SE,142,3.5,3.5,93,0.00,CLR,SKC,0.00,0.0,WeatherDisplay:10.37,2013-06-27 10:52:00,
2013-06-27 05:57:00,78.3,76.1,29.94,SSE,160,2.3,2.3,93,0.00,CLR,SKC,0.00,0.0,WeatherDisplay:10.37,2013-06-27 10:57:00,
2013-06-27 06:02:00,78.3,76.1,29.94,SE,129,2.3,2.3,93,0.00,CLR,SKC,0.00,0.0,WeatherDisplay:10.37,2013-06-27 11:02:00,
2013-06-27 06:07:00,78.2,76.0,29.94,SE,130,3.5,3.5,93,0.00,CLR,SKC,0.00,0.0,WeatherDisplay:10.37,2013-06-27 11:07:00,
2013-06-27 06:12:00,78.2,76.0,29.94,ESE,123,3.5,3.5,93,0.00,CLR,SKC,0.00,0.0,WeatherDisplay:10.37,2013-06-27 11:12:00,
2013-06-27 06:17:00,78.2,76.0,29.94,SE,136,3.5,3.5,93,0.00,CLR,SKC,0.00,0.0,WeatherDisplay:10.37,2013-06-27 11:17:00,
2013-06-27 06:22:00,78.1,75.9,29.94,SSE,162,2.3,2.3,93,0.00,CLR,SKC,0.00,0.0,WeatherDisplay:10.37,2013-06-27 11:22:00,
2013-06-27 06:27:00,78.1,75.9,29.94,SSE,155,3.5,3.5,93,0.00,CLR,SKC,0.00,0.0,WeatherDisplay:10.37,2013-06-27 11:27:00,
2013-06-27 06:32:00,78.1,75.9,29.94,SE,144,3.5,3.5,93,0.00,CLR,SKC,0.00,0.0,WeatherDisplay:10.37,2013-06-27 11:32:00,
2013-06-27 06:37:00,78.0,75.8,29.94,SE,129,3.5,3.5,93,0.00,CLR,SKC,0.00,0.0,WeatherDisplay:10.37,2013-06-27 11:37:00,
2013-06-27 06:42:00,78.0,75.8,29.94,SSE,158,3.5,3.5,93,0.00,CLR,SKC,0.00,7.0,WeatherDisplay:10.37,2013-06-27 11:42:00,
2013-06-27 06:47:00,78.0,75.8,29.94,ESE,123,3.5,3.5,93,0.00,CLR,SKC,0.00,12.0,WeatherDisplay:10.37,2013-06-27 11:47:00,
2013-06-27 06:52:00,78.0,75.8,29.94,SSE,161,3.5,3.5,93,0.00,CLR,SKC,0.00,19.0,WeatherDisplay:10.37,2013-06-27 11:52:00,
2013-06-27 06:57:00,78.1,76.2,29.94,SE,144,3.5,3.5,94,0.00,CLR,SKC,0.00,26.0,WeatherDisplay:10.37,2013-06-27 11:57:00,
2013-06-27 07:02:00,78.1,76.2,29.94,SSE,148,3.5,3.5,94,0.00,CLR,SKC,0.00,39.0,WeatherDisplay:10.37,2013-06-27 12:02:00,
2013-06-27 07:07:00,78.2,76.3,29.94,ESE,106,2.3,2.3,94,0.00,CLR,SKC,0.00,58.0,WeatherDisplay:10.37,2013-06-27 12:07:00,
2013-06-27 07:12:00,78.3,76.4,29.94,ESE,119,2.3,2.3,94,0.00,CLR,SKC,0.00,77.0,WeatherDisplay:10.37,2013-06-27 12:12:00,
2013-06-27 07:17:00,78.5,76.6,29.94,SE,143,2.3,2.3,94,0.00,CLR,SKC,0.00,90.0,WeatherDisplay:10.37,2013-06-27 12:17:00,
2013-06-27 07:22:00,78.6,76.7,29.94,SE,134,3.5,3.5,94,0.00,CLR,SKC,0.00,120.0,WeatherDisplay:10.37,2013-06-27 12:22:00,
2013-06-27 07:27:00,78.8,76.9,29.94,SSE,147,2.3,2.3,94,0.00,CLR,SKC,0.00,139.0,WeatherDisplay:10.37,2013-06-27 12:27:00,
2013-06-27 07:32:00,79.1,76.9,29.94,ESE,117,4.6,4.6,93,0.00,CLR,SKC,0.00,156.0,WeatherDisplay:10.37,2013-06-27 12:32:00,
2013-06-27 07:37:00,79.3,77.1,29.94,SSE,158,3.5,3.5,93,0.00,CLR,SKC,0.00,174.0,WeatherDisplay:10.37,2013-06-27 12:37:00,
2013-06-27 07:42:00,79.5,77.3,29.95,ESE,119,2.0,2.0,93,0.00,CLR,SKC,0.00,165.0,WeatherDisplay:10.37,2013-06-27 12:42:00,
2013-06-27 07:47:00,79.8,77.6,29.95,SE,136,2.3,2.3,93,0.00,CLR,SKC,0.00,178.0,WeatherDisplay:10.37,2013-06-27 12:47:00,
2013-06-27 07:52:00,80.1,77.6,29.95,ESE,110,2.3,2.3,92,0.00,CLR,SKC,0.00,178.0,WeatherDisplay:10.37,2013-06-27 12:52:00,
2013-06-27 07:57:00,80.2,77.7,29.95,ESE,113,3.5,3.5,92,0.00,CLR,SKC,0.00,160.0,WeatherDisplay:10.37,2013-06-27 12:57:00,
2013-06-27 08:02:00,80.4,77.5,29.95,ESE,121,3.5,3.5,91,0.00,CLR,SKC,0.00,130.0,WeatherDisplay:10.37,2013-06-27 13:02:00,
2013-06-27 08:07:00,80.6,77.7,29.95,ESE,123,1.1,1.1,91,0.00,CLR,SKC,0.00,102.0,WeatherDisplay:10.37,2013-06-27 13:07:00,
2013-06-27 08:12:00,80.8,77.6,29.96,ESE,112,4.6,4.6,90,0.00,CLR,SKC,0.00,88.0,WeatherDisplay:10.37,2013-06-27 13:12:00,
2013-06-27 08:17:00,81.0,77.8,29.96,SE,139,4.0,4.0,90,0.00,CLR,SKC,0.00,86.0,WeatherDisplay:10.37,2013-06-27 13:17:00,
2013-06-27 08:22:00,81.2,77.6,29.96,South,177,4.6,4.6,89,0.00,CLR,SKC,0.00,86.0,WeatherDisplay:10.37,2013-06-27 13:22:00,
2013-06-27 08:27:00,81.5,77.9,29.96,SSE,150,4.6,4.6,89,0.00,CLR,SKC,0.00,102.0,WeatherDisplay:10.37,2013-06-27 13:27:00,
2013-06-27 08:32:00,81.7,78.1,29.96,South,179,3.5,3.5,89,0.00,CLR,SKC,0.00,155.0,WeatherDisplay:10.37,2013-06-27 13:32:00,
2013-06-27 08:37:00,82.0,78.1,29.96,SSE,155,5.8,5.8,88,0.00,CLR,SKC,0.00,237.0,WeatherDisplay:10.37,2013-06-27 13:37:00,
2013-06-27 08:42:00,82.1,77.8,29.96,SE,124,3.5,3.5,87,0.00,CLR,SKC,0.00,318.0,WeatherDisplay:10.37,2013-06-27 13:42:00,
2013-06-27 08:47:00,82.3,78.0,29.96,ESE,119,4.6,4.6,87,0.00,CLR,SKC,0.00,369.0,WeatherDisplay:10.37,2013-06-27 13:47:00,
2013-06-27 08:52:00,82.5,77.9,29.96,SE,132,3.5,3.5,86,0.00,CLR,SKC,0.00,394.0,WeatherDisplay:10.37,2013-06-27 13:52:00,
2013-06-27 08:57:00,82.7,78.1,29.97,SE,128,3.5,3.5,86,0.00,CLR,SKC,0.00,411.0,WeatherDisplay:10.37,2013-06-27 13:57:00,
2013-06-27 09:02:00,82.9,77.9,29.97,SSE,155,5.8,5.8,85,0.00,CLR,SKC,0.00,431.0,WeatherDisplay:10.37,2013-06-27 14:02:00,
2013-06-27 09:07:00,83.0,78.0,29.97,SE,145,8.1,8.1,85,0.00,CLR,SKC,0.00,446.0,WeatherDisplay:10.37,2013-06-27 14:07:00,
2013-06-27 09:12:00,83.1,77.8,29.98,SE,128,5.8,5.8,84,0.00,CLR,SKC,0.00,464.0,WeatherDisplay:10.37,2013-06-27 14:12:00,
2013-06-27 09:17:00,83.2,77.9,29.98,SE,140,4.6,4.6,84,0.00,CLR,SKC,0.00,480.0,WeatherDisplay:10.37,2013-06-27 14:17:00,
2013-06-27 09:22:00,83.3,78.0,29.98,SE,126,6.9,6.9,84,0.00,CLR,SKC,0.00,496.0,WeatherDisplay:10.37,2013-06-27 14:22:00,
2013-06-27 09:27:00,83.4,78.1,29.98,ESE,110,5.8,5.8,84,0.00,CLR,SKC,0.00,512.0,WeatherDisplay:10.37,2013-06-27 14:27:00,
2013-06-27 09:32:00,83.4,78.1,29.98,SE,146,4.6,4.6,84,0.00,CLR,SKC,0.00,527.0,WeatherDisplay:10.37,2013-06-27 14:32:00,
2013-06-27 09:37:00,83.7,78.3,29.98,SSE,165,4.6,4.6,84,0.00,CLR,SKC,0.00,545.0,WeatherDisplay:10.37,2013-06-27 14:37:00,
2013-06-27 09:42:00,84.0,77.9,29.98,SE,125,10.4,10.4,82,0.00,CLR,SKC,0.00,561.0,WeatherDisplay:10.37,2013-06-27 14:42:00,
2013-06-27 09:47:00,83.8,77.7,29.98,SE,134,9.2,9.2,82,0.00,CLR,SKC,0.00,575.0,WeatherDisplay:10.37,2013-06-27 14:47:00,
2013-06-27 09:52:00,83.8,78.1,29.98,South,174,3.5,3.5,83,0.00,CLR,SKC,0.00,589.0,WeatherDisplay:10.37,2013-06-27 14:52:00,
2013-06-27 09:57:00,84.1,78.0,29.97,ESE,118,9.2,9.2,82,0.00,CLR,SKC,0.00,606.0,WeatherDisplay:10.37,2013-06-27 14:57:00,
2013-06-27 10:02:00,84.1,77.6,29.97,SSW,196,6.9,6.9,81,0.00,CLR,SKC,0.00,622.0,WeatherDisplay:10.37,2013-06-27 15:02:00,
2013-06-27 10:07:00,84.3,77.8,29.97,SE,125,9.2,9.2,81,0.00,CLR,SKC,0.00,636.0,WeatherDisplay:10.37,2013-06-27 15:07:00,
2013-06-27 10:12:00,84.1,77.6,29.97,SE,129,5.8,5.8,81,0.00,CLR,SKC,0.00,649.0,WeatherDisplay:10.37,2013-06-27 15:12:00,
2013-06-27 10:17:00,84.0,77.5,29.97,ESE,118,10.4,10.4,81,0.00,CLR,SKC,0.00,663.0,WeatherDisplay:10.37,2013-06-27 15:17:00,
2013-06-27 10:22:00,84.0,77.5,29.97,SE,142,10.4,10.4,81,0.00,CLR,SKC,0.00,675.0,WeatherDisplay:10.37,2013-06-27 15:22:00,
2013-06-27 10:27:00,83.9,77.4,29.97,ESE,122,10.4,10.4,81,0.00,CLR,SKC,0.00,689.0,WeatherDisplay:10.37,2013-06-27 15:27:00,
2013-06-27 10:32:00,83.9,77.4,29.97,SSE,167,11.5,11.5,81,0.00,CLR,SKC,0.00,698.0,WeatherDisplay:10.37,2013-06-27 15:32:00,
2013-06-27 10:37:00,84.0,77.5,29.97,SE,134,9.2,9.2,81,0.00,CLR,SKC,0.00,714.0,WeatherDisplay:10.37,2013-06-27 15:37:00,
2013-06-27 10:42:00,84.3,77.8,29.97,ESE,123,7.0,7.0,81,0.00,CLR,SKC,0.00,728.0,WeatherDisplay:10.37,2013-06-27 15:42:00,
2013-06-27 10:47:00,84.1,77.6,29.97,ESE,114,9.2,9.2,81,0.00,CLR,SKC,0.00,744.0,WeatherDisplay:10.37,2013-06-27 15:47:00,
2013-06-27 10:52:00,84.2,77.7,29.97,SE,128,11.5,11.5,81,0.00,CLR,SKC,0.00,751.0,WeatherDisplay:10.37,2013-06-27 15:52:00,
2013-06-27 10:57:00,84.5,77.6,29.97,SE,132,10.4,10.4,80,0.00,CLR,SKC,0.00,766.0,WeatherDisplay:10.37,2013-06-27 15:57:00,
2013-06-27 11:02:00,84.8,77.9,29.97,ESE,103,9.2,9.2,80,0.00,CLR,SKC,0.00,779.0,WeatherDisplay:10.37,2013-06-27 16:02:00,
2013-06-27 11:07:00,84.5,77.6,29.97,SE,124,10.4,10.4,80,0.00,CLR,SKC,0.00,791.0,WeatherDisplay:10.37,2013-06-27 16:07:00,
2013-06-27 11:12:00,84.2,77.4,29.97,ESE,120,6.9,6.9,80,0.00,CLR,SKC,0.00,798.0,WeatherDisplay:10.37,2013-06-27 16:12:00,
2013-06-27 11:17:00,84.2,77.4,29.97,SE,132,11.5,11.5,80,0.00,CLR,SKC,0.00,816.0,WeatherDisplay:10.37,2013-06-27 16:17:00,
2013-06-27 11:22:00,84.2,77.7,29.97,ESE,109,10.4,10.4,81,0.00,CLR,SKC,0.00,826.0,WeatherDisplay:10.37,2013-06-27 16:22:00,
2013-06-27 11:27:00,84.1,77.3,29.97,ESE,102,11.5,11.5,80,0.00,CLR,SKC,0.00,838.0,WeatherDisplay:10.37,2013-06-27 16:27:00,
2013-06-27 11:32:00,84.0,77.5,29.97,SSE,158,11.5,11.5,81,0.00,CLR,SKC,0.00,779.0,WeatherDisplay:10.37,2013-06-27 16:32:00,
2013-06-27 11:37:00,84.3,77.5,29.97,ESE,115,11.5,11.5,80,0.00,CLR,SKC,0.00,803.0,WeatherDisplay:10.37,2013-06-27 16:37:00,
2013-06-27 11:42:00,84.1,77.6,29.97,SE,137,9.2,9.2,81,0.00,CLR,SKC,0.00,863.0,WeatherDisplay:10.37,2013-06-27 16:42:00,
2013-06-27 11:47:00,84.3,77.8,29.97,ESE,109,10.0,10.0,81,0.00,CLR,SKC,0.00,882.0,WeatherDisplay:10.37,2013-06-27 16:47:00,
2013-06-27 11:52:00,84.3,77.5,29.97,ESE,119,11.5,11.5,80,0.00,CLR,SKC,0.00,846.0,WeatherDisplay:10.37,2013-06-27 16:52:00,
2013-06-27 11:57:00,84.7,77.8,29.97,ESE,116,9.2,9.2,80,0.00,CLR,SKC,0.00,874.0,WeatherDisplay:10.37,2013-06-27 16:57:00,
2013-06-27 12:02:00,84.8,77.6,29.97,ESE,115,11.5,11.5,79,0.00,CLR,SKC,0.00,819.0,WeatherDisplay:10.37,2013-06-27 17:02:00,
2013-06-27 12:07:00,84.7,77.5,29.97,East,97,13.8,13.8,79,0.00,CLR,SKC,0.00,875.0,WeatherDisplay:10.37,2013-06-27 17:07:00,
2013-06-27 12:12:00,84.5,77.6,29.96,ESE,119,10.4,10.4,80,0.00,CLR,SKC,0.00,886.0,WeatherDisplay:10.37,2013-06-27 17:12:00,
2013-06-27 12:17:00,85.0,77.8,29.96,East,96,10.4,10.4,79,0.00,CLR,SKC,0.00,888.0,WeatherDisplay:10.37,2013-06-27 17:17:00,
2013-06-27 12:22:00,84.9,77.7,29.96,SE,124,11.5,11.5,79,0.00,CLR,SKC,0.00,911.0,WeatherDisplay:10.37,2013-06-27 17:22:00,
2013-06-27 12:27:00,84.9,77.7,29.96,SE,128,10.0,10.0,79,0.00,CLR,SKC,0.00,932.0,WeatherDisplay:10.37,2013-06-27 17:27:00,
2013-06-27 12:32:00,84.7,77.5,29.96,ESE,120,10.4,10.4,79,0.00,CLR,SKC,0.00,865.0,WeatherDisplay:10.37,2013-06-27 17:32:00,
2013-06-27 12:37:00,84.8,77.6,29.96,SE,124,11.5,11.5,79,0.00,CLR,SKC,0.00,933.0,WeatherDisplay:10.37,2013-06-27 17:37:00,
2013-06-27 12:42:00,84.9,77.7,29.96,East,101,13.0,13.0,79,0.00,CLR,SKC,0.00,911.0,WeatherDisplay:10.37,2013-06-27 17:42:00,
2013-06-27 12:47:00,84.7,77.5,29.96,SE,131,10.4,10.4,79,0.00,CLR,SKC,0.00,926.0,WeatherDisplay:10.37,2013-06-27 17:47:00,
2013-06-27 12:52:00,84.7,77.8,29.96,ESE,113,11.5,11.5,80,0.00,CLR,SKC,0.00,902.0,WeatherDisplay:10.37,2013-06-27 17:52:00,
2013-06-27 12:57:00,84.7,77.8,29.96,SE,146,11.5,11.5,80,0.00,CLR,SKC,0.00,944.0,WeatherDisplay:10.37,2013-06-27 17:57:00,
2013-06-27 13:02:00,84.5,78.0,29.96,ESE,109,8.1,8.1,81,0.00,CLR,SKC,0.00,949.0,WeatherDisplay:10.37,2013-06-27 18:02:00,
2013-06-27 13:07:00,84.7,77.5,29.96,ESE,107,10.4,10.4,79,0.00,CLR,SKC,0.00,872.0,WeatherDisplay:10.37,2013-06-27 18:07:00,
2013-06-27 13:12:00,84.7,77.8,29.96,ESE,117,8.1,8.1,80,0.00,CLR,SKC,0.00,854.0,WeatherDisplay:10.37,2013-06-27 18:12:00,
2013-06-27 13:17:00,84.8,77.6,29.96,East,101,10.4,10.4,79,0.00,CLR,SKC,0.00,909.0,WeatherDisplay:10.37,2013-06-27 18:17:00,
2013-06-27 13:22:00,84.3,77.8,29.96,SE,140,8.1,8.1,81,0.00,CLR,SKC,0.00,935.0,WeatherDisplay:10.37,2013-06-27 18:22:00,
2013-06-27 13:27:00,84.6,78.1,29.96,ESE,123,12.0,12.0,81,0.00,CLR,SKC,0.00,947.0,WeatherDisplay:10.37,2013-06-27 18:27:00,
2013-06-27 13:32:00,84.8,78.3,29.96,ESE,104,11.5,11.5,81,0.00,CLR,SKC,0.00,937.0,WeatherDisplay:10.37,2013-06-27 18:32:00,
2013-06-27 13:37:00,85.1,78.2,29.96,ESE,105,11.5,11.5,80,0.00,CLR,SKC,0.00,932.0,WeatherDisplay:10.37,2013-06-27 18:37:00,
2013-06-27 13:42:00,85.2,78.3,29.95,ESE,115,12.7,12.7,80,0.00,CLR,SKC,0.00,933.0,WeatherDisplay:10.37,2013-06-27 18:42:00,
2013-06-27 13:47:00,85.0,78.5,29.95,SE,130,11.5,11.5,81,0.00,CLR,SKC,0.00,933.0,WeatherDisplay:10.37,2013-06-27 18:47:00,
2013-06-27 13:52:00,84.5,78.0,29.95,ESE,123,10.4,10.4,81,0.00,CLR,SKC,0.00,932.0,WeatherDisplay:10.37,2013-06-27 18:52:00,
2013-06-27 13:57:00,84.6,78.1,29.95,SE,124,11.5,11.5,81,0.00,CLR,SKC,0.00,930.0,WeatherDisplay:10.37,2013-06-27 18:57:00,
2013-06-27 14:02:00,84.7,78.2,29.95,SE,131,9.2,9.2,81,0.00,CLR,SKC,0.00,926.0,WeatherDisplay:10.37,2013-06-27 19:02:00,
2013-06-27 14:07:00,84.7,78.2,29.95,ESE,116,11.5,11.5,81,0.00,CLR,SKC,0.00,923.0,WeatherDisplay:10.37,2013-06-27 19:07:00,
2013-06-27 14:12:00,84.5,78.0,29.94,ESE,103,11.5,11.5,81,0.00,CLR,SKC,0.00,911.0,WeatherDisplay:10.37,2013-06-27 19:12:00,
2013-06-27 14:17:00,84.8,78.3,29.94,East,82,9.2,9.2,81,0.00,CLR,SKC,0.00,912.0,WeatherDisplay:10.37,2013-06-27 19:17:00,
2013-06-27 14:22:00,84.7,78.2,29.94,SE,135,11.5,11.5,81,0.00,CLR,SKC,0.00,907.0,WeatherDisplay:10.37,2013-06-27 19:22:00,
2013-06-27 14:27:00,84.6,78.1,29.94,ESE,111,11.5,11.5,81,0.00,CLR,SKC,0.00,907.0,WeatherDisplay:10.37,2013-06-27 19:27:00,
2013-06-27 14:32:00,84.7,78.2,29.94,East,90,10.4,10.4,81,0.00,CLR,SKC,0.00,902.0,WeatherDisplay:10.37,2013-06-27 19:32:00,
2013-06-27 14:37:00,84.7,78.2,29.94,ESE,103,12.7,12.7,81,0.00,CLR,SKC,0.00,896.0,WeatherDisplay:10.37,2013-06-27 19:37:00,
2013-06-27 14:42:00,84.8,77.9,29.94,SE,132,11.5,11.5,80,0.00,CLR,SKC,0.00,891.0,WeatherDisplay:10.37,2013-06-27 19:42:00,
2013-06-27 14:47:00,84.7,78.2,29.94,East,91,12.7,12.7,81,0.00,CLR,SKC,0.00,886.0,WeatherDisplay:10.37,2013-06-27 19:47:00,
2013-06-27 14:52:00,84.9,78.4,29.94,SE,132,11.5,11.5,81,0.00,CLR,SKC,0.00,881.0,WeatherDisplay:10.37,2013-06-27 19:52:00,
2013-06-27 14:57:00,85.2,78.3,29.94,ESE,115,15.0,15.0,80,0.00,CLR,SKC,0.00,868.0,WeatherDisplay:10.37,2013-06-27 19:57:00,
2013-06-27 15:02:00,85.0,78.5,29.94,SE,129,13.8,13.8,81,0.00,CLR,SKC,0.00,861.0,WeatherDisplay:10.37,2013-06-27 20:02:00,
2013-06-27 15:07:00,84.7,78.2,29.94,ESE,121,12.7,12.7,81,0.00,CLR,SKC,0.00,854.0,WeatherDisplay:10.37,2013-06-27 20:07:00,
2013-06-27 15:12:00,84.6,78.1,29.93,SE,124,16.1,16.1,81,0.00,CLR,SKC,0.00,846.0,WeatherDisplay:10.37,2013-06-27 20:12:00,
2013-06-27 15:17:00,84.6,78.1,29.93,ESE,121,14.0,14.0,81,0.00,CLR,SKC,0.00,838.0,WeatherDisplay:10.37,2013-06-27 20:17:00,
2013-06-27 15:22:00,84.9,78.8,29.93,ESE,117,13.8,13.8,82,0.00,CLR,SKC,0.00,828.0,WeatherDisplay:10.37,2013-06-27 20:22:00,
2013-06-27 15:27:00,84.8,78.7,29.93,ESE,117,13.8,13.8,82,0.00,CLR,SKC,0.00,819.0,WeatherDisplay:10.37,2013-06-27 20:27:00,
2013-06-27 15:32:00,84.7,78.6,29.93,ESE,105,13.0,13.0,82,0.00,CLR,SKC,0.00,809.0,WeatherDisplay:10.37,2013-06-27 20:32:00,
2013-06-27 15:38:00,84.7,78.6,29.93,ESE,109,15.0,15.0,82,0.00,CLR,SKC,0.00,798.0,WeatherDisplay:10.37,2013-06-27 20:38:00,
2013-06-27 15:43:00,84.7,78.2,29.93,East,87,13.8,13.8,81,0.00,CLR,SKC,0.00,788.0,WeatherDisplay:10.37,2013-06-27 20:43:00,
2013-06-27 15:49:00,84.8,78.3,29.93,ESE,112,13.8,13.8,81,0.00,CLR,SKC,0.00,773.0,WeatherDisplay:10.37,2013-06-27 20:49:00,
2013-06-27 15:54:00,84.8,78.7,29.93,East,98,11.0,11.0,82,0.00,CLR,SKC,0.00,765.0,WeatherDisplay:10.37,2013-06-27 20:54:00,
2013-06-27 16:00:00,84.9,78.8,29.93,ESE,115,10.0,15.0,82,0.00,CLR,SKC,0.00,752.0,WeatherDisplay:10.37,2013-06-27 21:00:00,
2013-06-27 16:05:00,84.7,78.6,29.93,ESE,119,13.8,13.8,82,0.00,CLR,SKC,0.00,742.0,WeatherDisplay:10.37,2013-06-27 21:05:00,
2013-06-27 16:10:00,84.7,78.6,29.92,ESE,117,15.0,15.0,82,0.00,SCT,SKC,0.00,726.0,WeatherDisplay:10.37,2013-06-27 21:10:00,
2013-06-27 16:15:00,84.6,78.5,29.92,ESE,105,11.0,11.0,82,0.00,SCT,SKC,0.00,715.0,WeatherDisplay:10.37,2013-06-27 21:15:00,
2013-06-27 16:21:00,84.4,78.3,29.92,ESE,113,12.0,16.0,82,0.00,CLR,SKC,0.00,700.0,WeatherDisplay:10.37,2013-06-27 21:21:00,
2013-06-27 16:26:00,84.4,78.7,29.92,ESE,116,12.7,12.7,83,0.00,CLR,SKC,0.00,687.0,WeatherDisplay:10.37,2013-06-27 21:26:00,
2013-06-27 16:31:00,84.5,78.8,29.92,ESE,106,13.8,13.8,83,0.00,CLR,SKC,0.00,671.0,WeatherDisplay:10.37,2013-06-27 21:31:00,
2013-06-27 16:36:00,84.5,78.8,29.92,East,98,14.0,14.0,83,0.00,CLR,SKC,0.00,659.0,WeatherDisplay:10.37,2013-06-27 21:36:00,
2013-06-27 16:42:00,84.4,78.7,29.92,ESE,115,13.8,13.8,83,0.00,CLR,SKC,0.00,645.0,WeatherDisplay:10.37,2013-06-27 21:42:00,
2013-06-27 16:47:00,84.5,78.8,29.92,ESE,123,16.1,16.1,83,0.00,CLR,SKC,0.00,628.0,WeatherDisplay:10.37,2013-06-27 21:47:00,
2013-06-27 16:52:00,84.3,78.6,29.92,ESE,117,13.8,13.8,83,0.00,CLR,SKC,0.00,613.0,WeatherDisplay:10.37,2013-06-27 21:52:00,
2013-06-27 16:57:00,84.3,78.6,29.92,ESE,113,12.7,12.7,83,0.00,CLR,SKC,0.00,603.0,WeatherDisplay:10.37,2013-06-27 21:57:00,
2013-06-27 17:03:00,84.7,78.6,29.92,SE,131,13.8,13.8,82,0.00,CLR,SKC,0.00,585.0,WeatherDisplay:10.37,2013-06-27 22:03:00,
2013-06-27 17:08:00,84.5,78.4,29.92,East,101,15.0,15.0,82,0.00,CLR,SKC,0.00,564.0,WeatherDisplay:10.37,2013-06-27 22:08:00,
2013-06-27 17:13:00,84.6,78.5,29.91,ESE,110,12.7,12.7,82,0.00,CLR,SKC,0.00,550.0,WeatherDisplay:10.37,2013-06-27 22:13:00,
2013-06-27 17:19:00,84.7,78.6,29.91,SE,127,11.5,11.5,82,0.00,CLR,SKC,0.00,534.0,WeatherDisplay:10.37,2013-06-27 22:19:00,
2013-06-27 17:24:00,84.1,78.4,29.91,ESE,113,13.8,13.8,83,0.00,CLR,SKC,0.00,515.0,WeatherDisplay:10.37,2013-06-27 22:24:00,
2013-06-27 17:29:00,84.0,78.3,29.91,East,100,12.7,12.7,83,0.00,CLR,SKC,0.00,499.0,WeatherDisplay:10.37,2013-06-27 22:29:00,
2013-06-27 17:35:00,84.1,78.7,29.91,East,97,12.7,12.7,84,0.00,CLR,SKC,0.00,483.0,WeatherDisplay:10.37,2013-06-27 22:35:00,
2013-06-27 17:40:00,84.1,78.4,29.91,ESE,114,13.8,13.8,83,0.00,CLR,SKC,0.00,464.0,WeatherDisplay:10.37,2013-06-27 22:40:00,
2013-06-27 17:45:00,83.9,78.2,29.91,ESE,113,17.3,17.3,83,0.00,CLR,SKC,0.00,448.0,WeatherDisplay:10.37,2013-06-27 22:45:00,
2013-06-27 17:50:00,83.9,78.2,29.91,ESE,121,11.5,11.5,83,0.00,CLR,SKC,0.00,432.0,WeatherDisplay:10.37,2013-06-27 22:50:00,
2013-06-27 17:56:00,83.7,78.0,29.91,ESE,117,12.0,12.0,83,0.00,CLR,SKC,0.00,415.0,WeatherDisplay:10.37,2013-06-27 22:56:00,
2013-06-27 18:01:00,83.8,78.4,29.91,SE,127,11.5,11.5,84,0.00,CLR,SKC,0.00,397.0,WeatherDisplay:10.37,2013-06-27 23:01:00,
2013-06-27 18:06:00,84.0,78.3,29.91,ESE,123,11.5,11.5,83,0.00,CLR,SKC,0.00,380.0,WeatherDisplay:10.37,2013-06-27 23:06:00,
2013-06-27 18:11:00,83.7,78.0,29.90,ESE,116,13.0,13.0,83,0.00,CLR,SKC,0.00,364.0,WeatherDisplay:10.37,2013-06-27 23:11:00,
2013-06-27 18:16:00,83.6,78.2,29.90,SE,125,12.7,12.7,84,0.00,CLR,SKC,0.00,348.0,WeatherDisplay:10.37,2013-06-27 23:16:00,
2013-06-27 18:22:00,83.6,78.2,29.90,SE,128,11.5,11.5,84,0.00,CLR,SKC,0.00,329.0,WeatherDisplay:10.37,2013-06-27 23:22:00,
2013-06-27 18:27:00,83.6,78.2,29.90,SE,125,11.5,11.5,84,0.00,CLR,SKC,0.00,313.0,WeatherDisplay:10.37,2013-06-27 23:27:00,
2013-06-27 18:33:00,83.7,78.3,29.90,ESE,123,11.5,11.5,84,0.00,CLR,SKC,0.00,294.0,WeatherDisplay:10.37,2013-06-27 23:33:00,
2013-06-27 18:39:00,83.8,78.4,29.90,ESE,116,13.8,13.8,84,0.00,CLR,SKC,0.00,279.0,WeatherDisplay:10.37,2013-06-27 23:39:00,
2013-06-27 18:44:00,83.7,78.3,29.90,ESE,116,12.7,12.7,84,0.00,CLR,SKC,0.00,262.0,WeatherDisplay:10.37,2013-06-27 23:44:00,
2013-06-27 18:49:00,83.6,78.2,29.90,SE,125,11.5,11.5,84,0.00,CLR,SKC,0.00,244.0,WeatherDisplay:10.37,2013-06-27 23:49:00,
2013-06-27 18:54:00,83.6,78.2,29.90,SE,139,10.0,10.0,84,0.00,CLR,SKC,0.00,227.0,WeatherDisplay:10.37,2013-06-27 23:54:00,
2013-06-27 19:00:00,83.5,78.2,29.90,ESE,121,9.0,14.0,84,0.00,CLR,SKC,0.00,211.0,WeatherDisplay:10.37,2013-06-28 00:00:00,
2013-06-27 19:05:00,83.4,78.4,29.90,ESE,119,12.7,12.7,85,0.00,SCT,SKC,0.00,197.0,WeatherDisplay:10.37,2013-06-28 00:05:00,
2013-06-27 19:10:00,83.4,78.4,29.90,SE,144,11.5,11.5,85,0.00,SCT,SKC,0.00,181.0,WeatherDisplay:10.37,2013-06-28 00:10:00,
2013-06-27 19:15:00,83.4,78.4,29.90,East,86,8.0,8.0,85,0.00,SCT,SKC,0.00,163.0,WeatherDisplay:10.37,2013-06-28 00:15:00,
2013-06-27 19:20:00,83.3,78.3,29.90,ESE,121,11.5,11.5,85,0.00,SCT,SKC,0.00,149.0,WeatherDisplay:10.37,2013-06-28 00:20:00,
2013-06-27 19:25:00,83.1,78.5,29.90,ESE,103,12.7,12.7,86,0.00,SCT,SKC,0.00,135.0,WeatherDisplay:10.37,2013-06-28 00:25:00,
2013-06-27 19:30:00,83.0,78.0,29.90,ESE,123,11.5,11.5,85,0.00,SCT,SKC,0.00,120.0,WeatherDisplay:10.37,2013-06-28 00:30:00,
2013-06-27 19:36:00,82.9,78.3,29.90,ESE,115,10.4,10.4,86,0.00,CLR,SKC,0.00,98.0,WeatherDisplay:10.37,2013-06-28 00:36:00,
2013-06-27 19:42:00,82.9,78.3,29.90,ESE,115,9.2,9.2,86,0.00,CLR,SKC,0.00,77.0,WeatherDisplay:10.37,2013-06-28 00:42:00,
2013-06-27 19:47:00,82.8,78.2,29.90,SE,128,9.2,9.2,86,0.00,CLR,SKC,0.00,63.0,WeatherDisplay:10.37,2013-06-28 00:47:00,
2013-06-27 19:52:00,82.6,78.0,29.90,SE,134,13.8,13.8,86,0.00,CLR,SKC,0.00,53.0,WeatherDisplay:10.37,2013-06-28 00:52:00,
2013-06-27 19:58:00,82.4,77.8,29.90,SE,126,11.5,11.5,86,0.00,CLR,SKC,0.00,42.0,WeatherDisplay:10.37,2013-06-28 00:58:00,
2013-06-27 20:03:00,82.2,77.9,29.90,SE,126,11.5,11.5,87,0.00,CLR,SKC,0.00,32.0,WeatherDisplay:10.37,2013-06-28 01:03:00,
2013-06-27 20:08:00,82.1,77.8,29.90,SE,130,11.5,11.5,87,0.00,CLR,SKC,0.00,23.0,WeatherDisplay:10.37,2013-06-28 01:08:00,
2013-06-27 20:14:00,82.1,77.8,29.90,SE,129,6.9,6.9,87,0.00,CLR,SKC,0.00,16.0,WeatherDisplay:10.37,2013-06-28 01:14:00,
2013-06-27 20:19:00,81.9,78.0,29.90,ESE,121,10.4,10.4,88,0.00,CLR,SKC,0.00,11.0,WeatherDisplay:10.37,2013-06-28 01:19:00,
2013-06-27 20:24:00,81.8,77.9,29.90,SE,129,12.7,12.7,88,0.00,CLR,SKC,0.00,7.0,WeatherDisplay:10.37,2013-06-28 01:24:00,
2013-06-27 20:30:00,81.6,77.7,29.90,ESE,123,7.0,13.0,88,0.00,CLR,SKC,0.00,5.0,WeatherDisplay:10.37,2013-06-28 01:30:00,
2013-06-27 20:35:00,81.5,77.6,29.90,SE,126,11.5,11.5,88,0.00,CLR,SKC,0.00,0.0,WeatherDisplay:10.37,2013-06-28 01:35:00,
2013-06-27 20:40:00,81.4,77.5,29.91,SE,130,9.2,9.2,88,0.00,CLR,SKC,0.00,0.0,WeatherDisplay:10.37,2013-06-28 01:40:00,
2013-06-27 20:45:00,81.4,77.8,29.91,ESE,115,10.4,10.4,89,0.00,CLR,SKC,0.00,0.0,WeatherDisplay:10.37,2013-06-28 01:45:00,
2013-06-27 20:50:00,81.4,77.8,29.91,ESE,123,5.8,5.8,89,0.00,FEW,SKC,0.00,0.0,WeatherDisplay:10.37,2013-06-28 01:50:00,
2013-06-27 20:55:00,81.3,77.7,29.91,ESE,114,11.5,11.5,89,0.00,FEW,SKC,0.00,0.0,WeatherDisplay:10.37,2013-06-28 01:55:00,
2013-06-27 21:01:00,81.3,77.7,29.91,SE,124,6.0,8.0,89,0.00,CLR,SKC,0.00,0.0,WeatherDisplay:10.37,2013-06-28 02:01:00,
2013-06-27 21:06:00,81.2,77.6,29.91,SE,137,9.2,9.2,89,0.00,CLR,SKC,0.00,0.0,WeatherDisplay:10.37,2013-06-28 02:06:00,
2013-06-27 21:11:00,81.2,77.6,29.91,ESE,121,6.9,6.9,89,0.00,CLR,SKC,0.00,0.0,WeatherDisplay:10.37,2013-06-28 02:11:00,
2013-06-27 21:16:00,81.2,78.0,29.91,ESE,117,6.9,6.9,90,0.00,CLR,SKC,0.00,0.0,WeatherDisplay:10.37,2013-06-28 02:16:00,
2013-06-27 21:21:00,81.1,77.9,29.91,SE,131,7.0,7.0,90,0.00,CLR,SKC,0.00,0.0,WeatherDisplay:10.37,2013-06-28 02:21:00,
2013-06-27 21:26:00,81.1,77.9,29.91,SSE,147,6.0,6.0,90,0.00,CLR,SKC,0.00,0.0,WeatherDisplay:10.37,2013-06-28 02:26:00,
2013-06-27 21:31:00,81.0,77.8,29.91,SSE,148,9.2,9.2,90,0.00,CLR,SKC,0.00,0.0,WeatherDisplay:10.37,2013-06-28 02:31:00,
2013-06-27 21:37:00,81.0,77.8,29.91,ESE,121,6.0,6.0,90,0.00,CLR,SKC,0.00,0.0,WeatherDisplay:10.37,2013-06-28 02:37:00,
2013-06-27 21:42:00,81.0,77.8,29.91,East,82,6.0,6.0,90,0.00,CLR,SKC,0.00,0.0,WeatherDisplay:10.37,2013-06-28 02:42:00,
2013-06-27 21:47:00,80.9,77.7,29.91,SE,136,5.8,5.8,90,0.00,CLR,SKC,0.00,0.0,WeatherDisplay:10.37,2013-06-28 02:47:00,
2013-06-27 21:52:00,80.9,77.7,29.91,ESE,121,4.6,4.6,90,0.00,CLR,SKC,0.00,0.0,WeatherDisplay:10.37,2013-06-28 02:52:00,
2013-06-27 21:57:00,80.9,77.7,29.91,SE,127,6.0,6.0,90,0.00,CLR,SKC,0.00,0.0,WeatherDisplay:10.37,2013-06-28 02:57:00,
2013-06-27 22:02:00,80.9,77.7,29.91,ESE,117,4.6,4.6,90,0.00,CLR,SKC,0.00,0.0,WeatherDisplay:10.37,2013-06-28 03:02:00,
2013-06-27 22:07:00,81.0,77.8,29.91,ESE,121,3.5,3.5,90,0.00,CLR,SKC,0.00,0.0,WeatherDisplay:10.37,2013-06-28 03:07:00,
2013-06-27 22:13:00,81.0,77.8,29.92,East,91,5.8,5.8,90,0.00,CLR,SKC,0.00,0.0,WeatherDisplay:10.37,2013-06-28 03:13:00,
2013-06-27 22:18:00,80.9,77.7,29.92,ESE,120,3.5,3.5,90,0.00,CLR,SKC,0.00,0.0,WeatherDisplay:10.37,2013-06-28 03:18:00,
2013-06-27 22:26:00,80.8,77.6,29.93,SE,130,5.8,5.8,90,0.00,CLR,SKC,0.00,0.0,WeatherDisplay:10.37,2013-06-28 03:26:00,
2013-06-27 22:31:00,80.7,77.9,29.93,SE,137,2.0,5.0,91,0.00,CLR,SKC,0.00,0.0,WeatherDisplay:10.37,2013-06-28 03:31:00,
2013-06-27 22:36:00,80.7,77.8,29.93,ESE,114,3.5,3.5,91,0.00,CLR,SKC,0.00,0.0,WeatherDisplay:10.37,2013-06-28 03:36:00,
2013-06-27 22:41:00,80.6,77.7,29.93,SSE,153,6.9,6.9,91,0.00,CLR,SKC,0.00,0.0,WeatherDisplay:10.37,2013-06-28 03:41:00,
2013-06-27 22:47:00,80.5,77.6,29.93,SE,134,4.6,4.6,91,0.00,CLR,SKC,0.00,0.0,WeatherDisplay:10.37,2013-06-28 03:47:00,
2013-06-27 22:52:00,80.4,77.5,29.93,SE,142,6.9,6.9,91,0.00,CLR,SKC,0.00,0.0,WeatherDisplay:10.37,2013-06-28 03:52:00,
2013-06-27 22:58:00,80.5,77.6,29.92,SSE,165,6.9,6.9,91,0.00,CLR,SKC,0.00,0.0,WeatherDisplay:10.37,2013-06-28 03:58:00,
2013-06-27 23:01:00,80.4,77.5,29.92,SE,124,10.4,10.4,91,0.00,CLR,SKC,0.00,0.0,WeatherDisplay:10.37,2013-06-28 04:01:00,
2013-06-27 23:06:00,80.4,77.5,29.92,SE,142,5.8,5.8,91,0.00,CLR,SKC,0.00,0.0,WeatherDisplay:10.37,2013-06-28 04:06:00,
2013-06-27 23:11:00,80.4,77.5,29.92,SSE,160,4.6,4.6,91,0.00,CLR,SKC,0.00,0.0,WeatherDisplay:10.37,2013-06-28 04:11:00,
2013-06-27 23:16:00,80.5,77.6,29.92,South,170,6.0,6.0,91,0.00,CLR,SKC,0.00,0.0,WeatherDisplay:10.37,2013-06-28 04:16:00,
2013-06-27 23:21:00,80.5,77.6,29.92,South,177,5.8,5.8,91,0.00,CLR,SKC,0.00,0.0,WeatherDisplay:10.37,2013-06-28 04:21:00,
2013-06-27 23:26:00,80.4,77.5,29.93,East,85,5.8,5.8,91,0.00,CLR,SKC,0.00,0.0,WeatherDisplay:10.37,2013-06-28 04:26:00,
2013-06-27 23:31:00,80.3,77.4,29.93,SSE,167,6.9,6.9,91,0.00,CLR,SKC,0.00,0.0,WeatherDisplay:10.37,2013-06-28 04:31:00,
2013-06-27 23:36:00,80.3,77.4,29.93,SE,139,6.9,6.9,91,0.00,CLR,SKC,0.00,0.0,WeatherDisplay:10.37,2013-06-28 04:36:00,
2013-06-27 23:41:00,80.3,77.4,29.93,ESE,113,10.4,10.4,91,0.00,CLR,SKC,0.00,0.0,WeatherDisplay:10.37,2013-06-28 04:41:00,
2013-06-27 23:46:00,80.3,77.4,29.93,ESE,111,6.9,6.9,91,0.00,CLR,SKC,0.00,0.0,WeatherDisplay:10.37,2013-06-28 04:46:00,
2013-06-27 23:51:00,80.3,77.4,29.93,SSE,152,3.5,3.5,91,0.00,CLR,SKC,0.00,0.0,WeatherDisplay:10.37,2013-06-28 04:51:00,
2013-06-27 23:56:00,80.2,77.3,29.93,SE,130,6.9,6.9,91,0.00,CLR,SKC,0.00,0.0,WeatherDisplay:10.37,2013-06-28 04:56:00,